Location: Charlottesville
(38.0290°N, 78.4770°W)
Time: 08:48:04
(UTC-05:00)

OTV 5 (USA 277) - Pass Details

Date: 07 October 2017
Orbit: 404 x 417 km, 43.0° (Epoch: 07 September)

Event Time Altitude Azimuth Distance (km) Brightness Sun altitude
Rises 20:37:46 0° 229° (SW) 2,343 ? -22.5°
Reaches altitude 10° 20:39:55 10° 222° (SW) 1,482 ? -22.9°
Enters shadow 20:41:10 20° 212° (SSW) 1,020 ? -23.2°
